Date String (YYYY-MM-DD hh:mm:ss) UTC,Instrument flags,absolute air pressure of the measurement (hPa),sample flow rate (lpm),inlet stack bypass flow (lpm),air temperature of the measurement (°C),ambient temperature measured by the external sensor (°C),aerosol sample conditioner tube jacket temperature (°C),OPC LED temperature (°C),internal box temperature (°C),relative humidity of the measurement (%),span deviation,mass concentration of particles derived from Lorenz-Mie calculation of OPC scattering (μg/m³),mass concentration of particles derived from Lorenz-Mie calculation of OPC scattering (μg/m³),mass concentration of particles derived from Lorenz-Mie calculation of OPC scattering (μg/m³)
DateTimeUTC,F1_M11,P_M11,Q1_M11,Q2_M11,T1_M11,T2_M11,T3_M11,T4_M11,T5_M11,U1_M11,ZSPAN_M11,X2_M11,X0_M11,X1_M11
2024-04-18 16:00:00,SystemResetWarning,0834.8,5.01,000.00,020.8,020.0,000.0,029.5,022.6,019.7,0000.0,0004.23,0006.21,0004.01
2024-04-18 16:01:00,SystemResetWarning,0835.3,5.00,000.00,020.8,020.0,000.0,029.4,022.6,019.5,0000.0,0004.25,0006.39,0004.03
2024-04-18 16:02:00,SystemResetWarning,0835.2,5.00,000.00,020.8,020.0,000.0,029.4,022.6,019.5,0000.0,0004.26,0006.23,0004.05
2024-04-18 16:03:00,SystemResetWarning,0835.1,5.00,000.00,020.8,020.0,000.0,029.4,022.6,019.4,0000.0,0004.25,0005.93,0004.06
2024-04-18 16:04:00,SystemResetWarning,0835.0,4.99,000.00,020.8,020.0,000.0,029.4,022.6,019.4,0000.0,0004.28,0005.91,0004.10
2024-04-18 16:05:00,SystemResetWarning,0835.3,5.00,000.00,020.8,020.0,000.0,029.4,022.6,019.4,0000.0,0004.31,0006.01,0004.13
2024-04-18 16:06:00,SystemResetWarning,0835.4,5.00,000.00,020.8,020.0,000.0,029.4,022.6,019.4,0000.0,0004.32,0006.08,0004.13
2024-04-18 16:07:00,SystemResetWarning,0835.4,5.01,000.00,020.8,020.0,000.0,029.4,022.6,019.5,0000.0,0004.32,0006.09,0004.12
2024-04-18 16:08:00,SystemResetWarning,0835.1,5.01,000.00,020.7,020.0,000.0,029.4,022.6,019.5,0000.0,0004.30,0006.06,0004.10
2024-04-18 16:09:00,SystemResetWarning,0834.8,5.01,000.00,020.7,020.0,000.0,029.4,022.6,019.7,0000.0,0004.29,0006.09,0004.09
2024-04-18 16:10:00,SystemResetWarning,0834.7,5.00,000.00,020.7,020.0,000.0,029.4,022.6,019.8,0000.0,0004.27,0006.01,0004.08
2024-04-18 16:11:00,SystemResetWarning,0834.9,5.00,000.00,020.7,020.0,000.0,029.4,022.6,019.8,0000.0,0004.26,0005.82,0004.07
2024-04-18 16:12:00,SystemResetWarning,0835.1,4.99,000.00,020.7,020.0,000.0,029.4,022.6,019.7,0000.0,0004.25,0005.71,0004.08
2024-04-18 16:13:00,SystemResetWarning,0835.1,5.00,000.00,020.7,020.0,000.0,029.4,022.6,019.6,0000.0,0004.25,0005.72,0004.07
2024-04-18 16:14:00,SystemResetWarning,0835.0,4.99,000.00,020.7,019.9,000.0,029.4,022.6,019.7,0000.0,0004.22,0005.69,0004.03
2024-04-18 16:15:00,SystemResetWarning,0834.9,5.02,000.00,020.7,020.0,000.0,029.4,022.6,020.0,0000.0,0004.17,0005.62,0003.99
2024-04-18 16:16:00,SystemResetWarning,0835.0,5.00,000.00,020.7,020.0,000.0,029.4,022.6,019.9,0000.0,0004.13,0005.57,0003.94
2024-04-18 16:17:00,SystemResetWarning,0835.3,4.99,000.00,020.7,020.0,000.0,029.4,022.6,019.6,0000.0,0004.10,0005.57,0003.93
2024-04-18 16:18:00,SystemResetWarning,0834.9,5.01,000.00,020.7,020.0,000.0,029.3,022.6,019.7,0000.0,0004.09,0005.56,0003.93
2024-04-18 16:19:00,SystemResetWarning,0834.9,5.01,000.00,020.7,020.0,000.0,029.3,022.6,019.8,0000.0,0004.11,0005.64,0003.94
2024-04-18 16:20:00,SystemResetWarning,0835.0,5.00,000.00,020.7,020.0,000.0,029.3,022.6,020.0,0000.0,0004.13,0006.27,0003.95
2024-04-18 16:21:00,SystemResetWarning,0834.9,4.99,000.00,020.7,020.0,000.0,029.3,022.6,019.8,0000.0,0004.16,0006.54,0003.96
2024-04-18 16:22:00,SystemResetWarning,0834.8,4.99,000.00,020.7,020.0,000.0,029.3,022.6,019.7,0000.0,0004.18,0006.65,0003.98
2024-04-18 16:23:00,SystemResetWarning,0834.9,5.00,000.00,020.7,020.0,000.0,029.3,022.6,019.7,0000.0,0004.21,0006.70,0004.01
2024-04-18 16:24:00,SystemResetWarning,0834.9,5.00,000.00,020.7,020.0,000.0,029.3,022.6,019.6,0000.0,0004.26,0006.81,0004.05
2024-04-18 16:25:00,SystemResetWarning,0835.0,5.01,000.00,020.7,020.0,000.0,029.3,022.6,019.7,0000.0,0004.34,0007.02,0004.13
2024-04-18 16:26:00,SystemResetWarning,0835.0,5.00,000.00,020.7,020.1,000.0,029.3,022.6,019.7,0000.0,0004.44,0007.18,0004.23
2024-04-18 16:27:00,SystemResetWarning,0835.0,4.99,000.00,020.7,020.1,000.0,029.3,022.6,019.7,0000.0,0004.51,0007.26,0004.31
2024-04-18 16:28:00,SystemResetWarning,0835.0,4.99,000.00,020.7,020.1,000.0,029.3,022.6,019.8,0000.0,0004.57,0007.24,0004.39
2024-04-18 16:29:00,SystemResetWarning,0835.0,5.00,000.00,020.7,020.0,000.0,029.3,022.6,019.8,0000.0,0004.67,0007.27,0004.48
2024-04-18 16:30:00,SystemResetWarning,0835.0,5.00,000.00,020.7,020.0,000.0,029.3,022.6,020.0,0000.0,0004.76,0007.45,0004.55
2024-04-18 16:31:00,SystemResetWarning,0835.0,5.00,000.00,020.7,020.0,000.0,029.3,022.6,020.0,0000.0,0004.85,0007.32,0004.65
2024-04-18 16:32:00,SystemResetWarning,0835.0,5.00,000.00,020.7,020.0,000.0,029.3,022.5,020.1,0000.0,0004.95,0007.27,0004.75
2024-04-18 16:33:00,SystemResetWarning,0835.0,5.00,000.00,020.7,020.0,000.0,029.3,022.5,020.0,0000.0,0005.04,0007.40,0004.84
2024-04-18 16:34:00,SystemResetWarning,0835.0,5.00,000.00,020.7,020.0,000.0,029.3,022.5,020.0,0000.0,0005.11,0007.40,0004.91
2024-04-18 16:35:00,SystemResetWarning,0835.0,4.99,000.00,020.7,020.0,000.0,029.3,022.5,020.1,0000.0,0005.16,0007.47,0004.95
2024-04-18 16:36:00,SystemResetWarning,0835.0,5.00,000.00,020.7,020.0,000.0,029.3,022.5,020.0,0000.0,0005.20,0007.48,0004.98
2024-04-18 16:37:00,SystemResetWarning,0835.0,5.00,000.00,020.7,020.0,000.0,029.3,022.5,020.0,0000.0,0005.24,0007.60,0005.01
2024-04-18 16:38:00,SystemResetWarning,0835.0,4.99,000.00,020.7,020.0,000.0,029.3,022.5,020.0,0000.0,0005.27,0007.62,0005.04
2024-04-18 16:39:00,SystemResetWarning,0835.0,5.00,000.00,020.7,020.0,000.0,029.3,022.5,020.0,0000.0,0005.30,0007.68,0005.06
2024-04-18 16:40:00,SystemResetWarning,0835.1,5.00,000.00,020.7,019.9,000.0,029.3,022.5,020.0,0000.0,0005.30,0007.72,0005.06
2024-04-18 16:41:00,SystemResetWarning,0835.1,5.01,000.00,020.6,019.9,000.0,029.3,022.5,020.2,0000.0,0005.32,0007.71,0005.07
2024-04-18 16:42:00,SystemResetWarning,0835.1,5.00,000.00,020.6,019.9,000.0,029.3,022.5,020.0,0000.0,0005.31,0007.69,0005.06
2024-04-18 16:43:00,SystemResetWarning,0835.1,5.00,000.00,020.6,019.9,000.0,029.3,022.5,020.0,0000.0,0005.30,0007.69,0005.03
2024-04-18 16:44:00,SystemResetWarning,0835.0,4.99,000.00,020.6,019.9,000.0,029.3,022.5,020.2,0000.0,0005.25,0007.59,0005.01
2024-04-18 16:45:00,SystemResetWarning,0835.0,5.00,000.00,020.6,019.9,000.0,029.3,022.5,020.4,0000.0,0005.24,0007.64,0005.00
2024-04-18 16:46:00,SystemResetWarning,0835.1,5.00,000.00,020.6,019.9,000.0,029.3,022.5,020.3,0000.0,0005.23,0007.63,0005.00
2024-04-18 16:47:00,SystemResetWarning,0835.1,5.00,000.00,020.6,019.9,000.0,029.2,022.5,020.4,0000.0,0005.23,0007.62,0005.02
2024-04-18 16:48:00,SystemResetWarning,0835.1,5.00,000.00,020.6,020.0,000.0,029.2,022.5,020.4,0000.0,0005.23,0007.60,0005.02
2024-04-18 16:49:00,SystemResetWarning,0835.1,5.00,000.00,020.6,020.0,000.0,029.2,022.5,020.5,0000.0,0005.24,0007.61,0005.02
2024-04-18 16:50:00,SystemResetWarning,0835.2,5.00,000.00,020.6,020.0,000.0,029.2,022.5,020.5,0000.0,0005.26,0007.67,0005.02
2024-04-18 16:51:00,SystemResetWarning,0835.1,5.00,000.00,020.6,020.0,000.0,029.2,022.5,020.5,0000.0,0005.26,0007.61,0005.03
2024-04-18 16:52:00,SystemResetWarning,0835.1,5.00,000.00,020.6,020.0,000.0,029.2,022.5,020.5,0000.0,0005.25,0007.55,0005.03
2024-04-18 16:53:00,SystemResetWarning,0835.1,4.99,000.00,020.6,020.0,000.0,029.2,022.5,020.5,0000.0,0005.25,0007.53,0005.04
2024-04-18 16:54:00,SystemResetWarning,0835.1,5.01,000.00,020.6,020.0,000.0,029.2,022.5,020.4,0000.0,0005.26,0007.44,0005.06
2024-04-18 16:55:00,SystemResetWarning,0835.1,5.00,000.00,020.6,020.0,000.0,029.2,022.5,020.2,0000.0,0005.31,0007.53,0005.08
2024-04-18 16:56:00,SystemResetWarning,0835.0,5.00,000.00,020.6,020.0,000.0,029.2,022.5,020.0,0000.0,0005.33,0007.49,0005.10
2024-04-18 16:57:00,SystemResetWarning,0835.0,5.00,000.00,020.6,020.0,000.0,029.2,022.5,019.8,0000.0,0005.33,0007.46,0005.10
2024-04-18 16:58:00,SystemResetWarning,0835.0,5.00,000.00,020.6,020.0,000.0,029.2,022.5,019.9,0000.0,0005.33,0007.48,0005.10
2024-04-18 16:59:00,SystemResetWarning,0835.0,5.01,000.00,020.6,020.0,000.0,029.2,022.5,019.8,0000.0,0005.32,0007.42,0005.09
